Philadelphia, PA

8:40 PM EST on November 19, 2019 (GMT -0500)
Philadelphia International

Weather History for KPHL - May, 2019

Change the Weather History Date:

Monday, May 6, 2019

  Actual Average Record
Temperature  
Mean Temperature 64 °F 61 °F  
Max Temperature 73 °F 71 °F 90 °F (1986)
Min Temperature 54 °F 51 °F 36 °F (1891)
Degree Days  
Heating Degree Days 1 5  
Month to date heating degree days 20 36  
Since 1 July heating degree days 4305 4526  
Cooling Degree Days 0 1  
Month to date cooling degree days 4 6  
Year to date cooling degree days 28 19  
Growing Degree Days 13 (Base 50)    
Moisture  
Dew Point 52 °F    
Average Humidity 73    
Maximum Humidity 93    
Minimum Humidity 53    
Precipitation  
Precipitation 0.00 in 0.12 in 2.00 in (1956)
Month to date precipitation 1.06 0.66  
Year to date precipitation 15.12 13.69  
Snow  
Snow 0.00 in 0.00 in T in (1891)
Month to date snowfall 0.0 0.0  
Since 1 July snowfall 17.1 22.4  
Snow Depth 0.00 in    
Sea Level Pressure  
Sea Level Pressure 29.98 in    
Wind  
Wind Speed 7 mph (NNE)    
Max Wind Speed 16 mph    
Max Gust Speed 23 mph    
Visibility 10 miles    
Events      
T = Trace of Precipitation, MM = Missing Value Source: NWS Daily Summary

Daily Weather History Graph

Daily Weather History Graph

Search for Another Location

Airport or City:

Astronomy

May. 06, 2019 Rise Set
Actual Time 5:55 AM EDT 8:00 PM EDT
Civil Twilight 5:25 AM EDT 8:29 PM EDT
Nautical Twilight 4:49 AM EDT 9:06 PM EDT
Astronomical Twilight 4:10 AM EDT 9:46 PM EDT
Moon 7:16 AM EDT (5/6) 9:55 PM EDT (5/6)
Length of Visible Light 15h 04m
Length of Day
14h 04m
Waxing Crescent, 3% of the Moon is Illuminated
May 6
Waxing Crescent
May 11
First Quarter
May 18
Full
May 26
Last Quarter
Jun 3
New

Hourly Weather History & Observations

Time (EDT) Temp. Dew Point Humidity Pressure Visibility Wind Dir Wind Speed Gust Speed Precip Events Conditions
12:54 AM 54.0 °F 50.0 °F 86% 29.85 in 10.0 mi North 15.0 mph - N/A   Overcast
1:54 AM 55.0 °F 51.1 °F 86% 29.86 in 10.0 mi NNE 13.8 mph - N/A   Overcast
2:54 AM 55.0 °F 51.1 °F 86% 29.86 in 10.0 mi NNE 10.4 mph - N/A   Overcast
3:54 AM 54.0 °F 51.1 °F 90% 29.87 in 10.0 mi NNE 8.1 mph - N/A   Overcast
4:54 AM 55.0 °F 50.0 °F 83% 29.89 in 10.0 mi North 11.5 mph - N/A   Overcast
5:32 AM 55.0 °F 51.1 °F 86% 29.90 in 10.0 mi North 10.4 mph - N/A   Overcast
5:54 AM 55.0 °F 50.0 °F 83% 29.92 in 10.0 mi North 10.4 mph - N/A   Overcast
6:54 AM 55.9 °F 51.1 °F 84% 29.94 in 10.0 mi NNE 9.2 mph 20.7 mph N/A   Mostly Cloudy
7:29 AM 55.9 °F 51.1 °F 84% 29.96 in 10.0 mi North 8.1 mph - N/A   Mostly Cloudy
7:54 AM 55.9 °F 51.1 °F 84% 29.97 in 10.0 mi North 11.5 mph 18.4 mph N/A   Mostly Cloudy
8:50 AM 57.2 °F 51.8 °F 82% 29.99 in 10.0 mi North 8.1 mph - N/A   Mostly Cloudy
8:54 AM 57.9 °F 51.1 °F 78% 29.99 in 10.0 mi North 8.1 mph - N/A   Mostly Cloudy
9:07 AM 59.0 °F 51.1 °F 75% 29.99 in 10.0 mi North 8.1 mph - N/A   Scattered Clouds
9:54 AM 62.1 °F 51.1 °F 67% 29.99 in 10.0 mi NNW 5.8 mph - N/A   Scattered Clouds
10:54 AM 66.0 °F 51.1 °F 59% 30.00 in 10.0 mi North 4.6 mph - N/A   Scattered Clouds
11:54 AM 69.1 °F 53.1 °F 57% 30.01 in 10.0 mi Calm Calm - N/A   Scattered Clouds
12:54 PM 69.1 °F 54.0 °F 58% 29.99 in 10.0 mi SSE 6.9 mph - N/A   Scattered Clouds
1:54 PM 72.0 °F 55.0 °F 55% 29.98 in 10.0 mi Variable 3.5 mph - N/A   Mostly Cloudy
2:54 PM 72.0 °F 53.1 °F 51% 29.99 in 10.0 mi Variable 3.5 mph - N/A   Mostly Cloudy
3:54 PM 72.0 °F 54.0 °F 53% 30.00 in 10.0 mi NNW 9.2 mph - N/A   Mostly Cloudy
4:54 PM 72.0 °F 54.0 °F 53% 30.00 in 10.0 mi WSW 6.9 mph - N/A   Mostly Cloudy
5:54 PM 72.0 °F 54.0 °F 53% 30.01 in 10.0 mi South 6.9 mph - N/A   Partly Cloudy
6:54 PM 69.1 °F 55.9 °F 63% 30.02 in 10.0 mi SE 12.7 mph 16.1 mph N/A   Partly Cloudy
7:54 PM 64.9 °F 55.0 °F 70% 30.05 in 10.0 mi SSE 8.1 mph - N/A   Scattered Clouds
8:54 PM 64.0 °F 55.0 °F 73% 30.07 in 10.0 mi SE 3.5 mph - N/A   Partly Cloudy
9:54 PM 61.0 °F 51.1 °F 70% 30.11 in 10.0 mi SE 4.6 mph - N/A   Scattered Clouds
10:54 PM 57.9 °F 48.9 °F 72% 30.12 in 10.0 mi South 5.8 mph - N/A   Scattered Clouds
11:54 PM 55.0 °F 48.9 °F 80% 30.13 in 10.0 mi SE 3.5 mph - N/A   Mostly Cloudy